Weather reports worldwide

Advertisment
Coleshill, United Kingdom (3535): temperature & dewpoint: 19.09.2018 22:00:00 - 25.09.2018 22:00:00 (BST)Coleshill, United Kingdom (3535): temperature -20cm & temperature -100cm: 19.09.2018 22:00:00 - 25.09.2018 22:00:00 (BST)Coleshill, United Kingdom (3535): wind speed & gusts: 19.09.2018 22:00:00 - 25.09.2018 22:00:00 (BST)Coleshill, United Kingdom (3535): wind direction: 19.09.2018 22:00:00 - 25.09.2018 22:00:00 (BST)Coleshill, United Kingdom (3535): reduced air pressure: 19.09.2018 22:00:00 - 25.09.2018 22:00:00 (BST)Coleshill, United Kingdom (3535): visibility: 19.09.2018 22:00:00 - 25.09.2018 22:00:00 (BST)Coleshill, United Kingdom (3535): precipitation: 19.09.2018 22:00:00 - 25.09.2018 22:00:00 (BST)
Date & Time tt [°C] td [°C] tt -20cm [°C] tt -100cm [°C] ff [km/h] ff [kn] fx [km/h] fx [kn] dd ppp [hPa] vv [km] rr [mm]
25.09.2018 22:00:00 10,3 7,2 - - 9 5 - - S 1033,8 28 0,0
25.09.2018 21:00:00 11,8 7,2 - - 8 4 - - S 1034,2 35 0,0
25.09.2018 20:00:00 12,5 6,9 - - 9 5 - - S 1033,7 40 0,0
25.09.2018 19:00:00 14,0 6,6 - - 11 6 - - SSW 1033,7 40 0,0
25.09.2018 18:00:00 15,0 6,4 - - 15 8 - - SSW 1033,7 45 0,0
25.09.2018 17:00:00 16,1 6,5 - - 15 8 - - SSW 1034,3 35 0,0
25.09.2018 16:00:00 16,6 6,4 - - 15 8 - - SSW 1034,3 40 0,0
25.09.2018 15:00:00 16,1 5,8 - - 18 10 - - SSW 1035,3 45 0,0
25.09.2018 14:00:00 16,0 5,8 - - 15 8 - - SSW 1036,0 24 0,0
25.09.2018 13:00:00 15,0 4,4 - - 18 10 - - SSW 1037,0 35 0,0
25.09.2018 12:00:00 14,0 3,6 - - 16 9 - - S 1037,6 40 0,0
25.09.2018 11:00:00 12,4 5,7 - - 9 5 - - S 1038,2 30 0,0
25.09.2018 10:00:00 9,6 5,9 12,9 15,2 11 6 - - S 1038,4 18 0,0
25.09.2018 09:00:00 6,6 5,4 - - 5 3 - - SSE 1038,6 16 0,0
25.09.2018 08:00:00 3,1 2,5 - - 2 1 - - SSE 1038,5 11 0,0
25.09.2018 07:00:00 3,1 2,7 - - 8 4 - - S 1038,4 17 0,0
25.09.2018 06:00:00 2,7 2,4 - - 8 4 - - SSW 1038,2 17 0,0
25.09.2018 05:00:00 2,2 1,7 - - 4 2 - - S 1038,8 11 0,0
25.09.2018 04:00:00 2,9 2,5 - - 5 3 - - SSE 1039,1 30 0,0
25.09.2018 03:00:00 2,9 2,5 - - 5 3 - - SSW 1039,2 18 0,0
25.09.2018 02:00:00 2,5 1,8 - - 4 2 - - SW 1039,4 19 0,0
25.09.2018 01:00:00 3,6 2,9 - - 4 2 - - SSW 1039,5 35 0,0
25.09.2018 00:00:00 4,5 3,3 - - 4 2 - - S 1039,5 45 0,0
24.09.2018 23:00:00 4,8 3,0 - - 4 2 - - NW 1039,6 45 0,0
24.09.2018 22:00:00 5,6 2,7 - - 2 1 - - WNW 1039,2 50 0,0
24.09.2018 21:00:00 7,6 3,0 - - 2 1 - - W 1038,8 50 0,0
24.09.2018 20:00:00 10,1 3,0 - - 8 4 - - WNW 1038,3 50 0,0
24.09.2018 19:00:00 10,7 3,3 - - 9 5 - - NNW 1038,2 50 0,0
24.09.2018 18:00:00 12,9 4,7 - - 13 7 - - NNW 1037,8 50 0,0
24.09.2018 17:00:00 14,3 4,5 - - 15 8 - - NNW 1037,5 50 0,0
24.09.2018 16:00:00 14,2 3,8 - - 13 7 - - WNW 1037,9 40 0,0
24.09.2018 15:00:00 13,5 3,4 - - 13 7 - - NNW 1038,3 40 0,0
24.09.2018 14:00:00 12,9 4,1 - - 13 7 - - NW 1038,6 40 0,0
24.09.2018 13:00:00 12,2 4,9 - - 13 7 - - WNW 1038,5 30 0,0
24.09.2018 12:00:00 13,0 4,9 - - 18 10 - - NNW 1038,5 26 0,0
24.09.2018 11:00:00 11,8 5,5 - - 15 8 - - NW 1038,5 40 0,0
24.09.2018 10:00:00 10,5 5,6 13,4 15,5 15 8 - - NW 1038,2 30 0,0
24.09.2018 09:00:00 8,6 6,2 - - 9 5 - - WNW 1037,5 29 0,0
24.09.2018 08:00:00 6,0 5,2 - - 8 4 - - W 1036,8 20 0,0
24.09.2018 07:00:00 4,8 4,0 - - 5 3 - - NNW 1036,0 28 0,0
24.09.2018 06:00:00 5,2 4,3 - - 8 4 - - W 1035,8 26 0,0
24.09.2018 05:00:00 4,1 3,5 - - 4 2 - - WSW 1035,6 22 0,0
24.09.2018 04:00:00 5,5 4,5 - - 4 2 - - SW 1035,2 24 0,0
24.09.2018 03:00:00 5,9 4,8 - - 11 6 - - W 1034,4 30 0,0
24.09.2018 02:00:00 6,8 5,3 - - 8 4 - - WNW 1033,9 35 0,0
24.09.2018 01:00:00 5,1 4,3 - - 5 3 - - WSW 1033,0 30 0,0
24.09.2018 00:00:00 6,0 4,3 - - 2 1 - - SW 1031,9 40 0,0
23.09.2018 23:00:00 7,6 4,9 - - 5 3 - - WNW 1031,0 40 0,0
23.09.2018 22:00:00 8,5 5,1 - - 8 4 - - WNW 1030,3 50 0,0
23.09.2018 21:00:00 9,2 5,8 - - 11 6 - - WNW 1029,0 50 0,0
23.09.2018 20:00:00 9,9 5,5 - - 16 9 - - WNW 1027,7 50 0,0
23.09.2018 19:00:00 10,7 5,3 - - 15 8 - - WNW 1026,1 45 0,0
23.09.2018 18:00:00 11,3 5,9 - - 16 9 - - NNW 1024,8 50 0,0
23.09.2018 17:00:00 12,2 5,0 - - 21 11 46 25 NW 1023,5 45 0,0
23.09.2018 16:00:00 12,4 5,7 - - 26 14 - - WNW 1022,5 40 0,0
23.09.2018 15:00:00 12,8 3,9 - - 24 13 48 26 NNW 1021,2 40 0,0
23.09.2018 14:00:00 12,3 3,1 - - 29 16 - - NW 1020,2 50 0,0
23.09.2018 13:00:00 12,1 4,5 - - 24 13 - - NW 1019,5 26 0,0
23.09.2018 12:00:00 11,2 5,1 - - 21 11 - - NW 1018,7 40 0,0
23.09.2018 11:00:00 10,0 6,4 - - 11 6 - - NW 1018,1 50 0,2
23.09.2018 10:00:00 8,2 6,2 14,4 15,7 8 4 - - NW 1017,8 21 0,4
23.09.2018 09:00:00 8,0 6,4 - - 11 6 - - NNW 1017,4 11 0,4
23.09.2018 08:00:00 8,4 7,3 - - 11 6 - - NNW 1015,8 15 0,6
23.09.2018 07:00:00 8,7 7,7 - - 9 5 - - NNW 1015,2 10 0,0
23.09.2018 06:00:00 8,7 7,7 - - 8 4 - - N 1014,9 16 0,0
23.09.2018 05:00:00 9,0 7,9 - - 9 5 - - N 1015,2 19 0,0
23.09.2018 04:00:00 9,0 8,3 - - 5 3 - - N 1015,2 11 0,0
23.09.2018 03:00:00 9,1 8,2 - - 4 2 - - N 1015,2 10 0,0
23.09.2018 02:00:00 9,1 8,4 - - 5 3 - - N 1015,8 9 0,0
23.09.2018 01:00:00 9,0 8,4 - - 8 4 - - N 1015,7 10 0,0
23.09.2018 00:00:00 9,0 8,3 - - 5 3 - - N 1015,7 12 0,0
22.09.2018 23:00:00 9,1 8,3 - - 8 4 - - N 1015,4 18 0,0
22.09.2018 22:00:00 9,2 8,0 - - 5 3 - - NNE 1015,5 45 0,0
22.09.2018 21:00:00 9,2 8,2 - - 4 2 - - NNE 1015,5 35 0,0
22.09.2018 20:00:00 9,3 8,2 - - 5 3 - - ESE 1015,4 45 0,0
22.09.2018 19:00:00 9,8 8,2 - - 5 3 - - E 1015,4 14 0,0
22.09.2018 18:00:00 10,1 8,3 - - 5 3 - - E 1015,5 35 0,2
22.09.2018 17:00:00 10,3 8,3 - - 4 2 - - ESE 1016,2 30 0,2
22.09.2018 16:00:00 10,2 7,6 - - 9 5 - - SSE 1016,4 26 0,4
22.09.2018 15:00:00 10,3 8,0 - - 13 7 - - S 1017,0 22 0,4
22.09.2018 14:00:00 11,2 9,1 - - 5 3 - - SSW 1018,0 30 0,4
22.09.2018 13:00:00 11,5 8,8 - - 9 5 - - SW 1018,0 22 0,0
22.09.2018 12:00:00 11,7 8,1 - - 9 5 - - SW 1018,6 18 0,0
22.09.2018 11:00:00 11,5 8,2 - - 9 5 - - SSW 1018,7 27 0,0
22.09.2018 10:00:00 11,1 7,9 14,9 16,0 8 4 - - SSW 1018,1 30 0,0
22.09.2018 09:00:00 10,6 8,0 - - 9 5 - - SSW 1017,8 28 0,0
22.09.2018 08:00:00 9,7 7,8 - - 8 4 - - S 1018,2 30 0,0
22.09.2018 07:00:00 9,5 7,6 - - 8 4 - - S 1018,0 26 0,0
22.09.2018 06:00:00 9,5 7,7 - - 5 3 - - SSW 1017,7 25 0,0
22.09.2018 05:00:00 9,3 7,5 - - 4 2 - - SSW 1017,5 26 0,0
22.09.2018 04:00:00 9,4 7,4 - - 9 5 - - SSW 1017,5 35 0,0
22.09.2018 03:00:00 9,4 7,3 - - 11 6 - - S 1017,2 40 0,0
22.09.2018 02:00:00 9,4 7,3 - - 11 6 - - SSW 1016,9 35 0,0
22.09.2018 01:00:00 9,5 7,3 - - 8 4 - - S 1016,9 30 0,0
22.09.2018 00:00:00 10,3 7,5 - - 8 4 - - SW 1016,4 35 0,0
21.09.2018 23:00:00 11,2 7,8 - - 9 5 - - SW 1016,0 45 0,0
21.09.2018 22:00:00 10,9 7,8 - - 5 3 - - SSW 1015,4 40 0,0
21.09.2018 21:00:00 11,6 7,1 - - 15 8 - - WSW 1014,9 40 0,0
21.09.2018 20:00:00 11,8 5,4 - - 11 6 - - W 1013,9 40 0,0
21.09.2018 19:00:00 13,0 6,5 - - 16 9 52 28 W 1012,6 35 0,0
21.09.2018 18:00:00 14,1 5,9 - - 29 16 63 34 W 1011,3 45 0,0
21.09.2018 17:00:00 14,5 5,4 - - 31 17 63 34 W 1009,6 40 0,0
21.09.2018 16:00:00 15,2 6,3 - - 26 14 54 29 WSW 1008,6 35 0,0
21.09.2018 15:00:00 13,9 6,1 - - 28 15 55 30 W 1007,9 40 0,0
21.09.2018 14:00:00 14,1 7,9 - - 24 13 52 28 WSW 1006,5 27 0,0
21.09.2018 13:00:00 11,8 7,4 - - 18 10 50 27 SW 1006,2 35 0,2
21.09.2018 12:00:00 9,7 7,0 - - 16 9 - - WSW 1006,4 13 0,6
21.09.2018 11:00:00 11,6 5,4 - - 15 8 50 27 WSW 1005,5 35 0,0
21.09.2018 10:00:00 11,5 5,3 15,7 16,0 16 9 - - WSW 1004,7 40 0,0
21.09.2018 09:00:00 10,1 6,3 - - 13 7 - - SW 1004,1 30 0,0
21.09.2018 08:00:00 9,0 5,6 - - 15 8 - - SW 1003,3 35 0,0
21.09.2018 07:00:00 8,3 5,2 - - 13 7 - - WSW 1002,3 50 0,0
21.09.2018 06:00:00 9,1 5,9 - - 18 10 - - WSW 1000,9 50 0,0
21.09.2018 05:00:00 10,0 6,1 - - 24 13 50 27 W 999,7 35 0,0
21.09.2018 04:00:00 10,3 6,6 - - 21 11 50 27 W 997,9 50 0,0
21.09.2018 03:00:00 12,3 8,5 - - 24 13 50 27 WSW 995,6 45 0,0
21.09.2018 02:00:00 14,5 10,1 - - 22 12 57 31 SW 993,3 45 0,0
21.09.2018 01:00:00 16,2 14,0 - - 31 17 65 35 SSW 991,8 50 0,4
21.09.2018 00:00:00 16,8 15,8 - - 37 20 67 36 S 991,9 5 3,8
20.09.2018 23:00:00 16,7 15,7 - - 37 20 59 32 S 992,9 3,9 2,6
20.09.2018 22:00:00 17,4 15,4 - - 34 18 59 32 S 995,7 11 0,4
20.09.2018 21:00:00 16,9 15,3 - - 28 15 55 30 S 997,4 14 0,8
20.09.2018 20:00:00 18,1 14,5 - - 31 17 52 28 S 998,9 22 0,0
20.09.2018 19:00:00 18,4 14,6 - - 31 17 63 34 S 999,8 30 0,0
20.09.2018 18:00:00 18,2 15,1 - - 31 17 59 32 S 1000,8 27 0,0
20.09.2018 17:00:00 18,2 14,9 - - 31 17 57 31 S 1001,6 19 0,0
20.09.2018 16:00:00 18,2 15,0 - - 31 17 52 28 S 1002,6 20 0,0
20.09.2018 15:00:00 17,3 15,9 - - 29 16 54 29 S 1003,7 13 0,0
20.09.2018 14:00:00 15,1 14,9 - - 16 9 - - SSE 1005,3 4,9 0,6
20.09.2018 13:00:00 13,5 13,2 - - 9 5 - - ESE 1006,9 3,8 4,4
20.09.2018 12:00:00 13,0 12,5 - - 4 2 - - SSE 1008,9 2,1 1,6
20.09.2018 11:00:00 12,9 12,5 - - 9 5 - - SE 1009,6 15 1,2
20.09.2018 10:00:00 12,3 11,8 16,2 16,2 5 3 - - SSE 1010,6 13 0,0
20.09.2018 09:00:00 11,8 11,6 - - 5 3 - - SSE 1010,7 30 0,0
20.09.2018 08:00:00 11,1 10,9 - - 4 2 - - SSE 1010,8 8 1,0
20.09.2018 07:00:00 10,9 10,6 - - 5 3 - - SSE 1010,7 4,7 2,4
20.09.2018 06:00:00 10,9 10,5 - - 5 3 - - SSE 1010,9 3,2 3,2
20.09.2018 05:00:00 10,9 10,5 - - 5 3 - - S 1011,5 4,2 0,6
20.09.2018 04:00:00 10,9 10,3 - - 5 3 - - S 1011,5 7 0,4
20.09.2018 03:00:00 11,1 10,2 - - 9 5 - - S 1012,0 9 1,4
20.09.2018 02:00:00 12,1 9,5 - - 8 4 - - S 1012,3 12 0,0
20.09.2018 01:00:00 12,3 8,9 - - 8 4 - - SSW 1012,3 22 0,0
20.09.2018 00:00:00 12,7 8,6 - - 11 6 - - SSW 1012,7 22 0,0
19.09.2018 23:00:00 12,5 8,2 - - 15 8 - - SSW 1012,6 19 0,2
19.09.2018 22:00:00 14,0 6,1 - - 11 6 - - SW 1012,4 25 0,0

tt = temperature
td = dewpoint
tt -20cm = temperature -20cm
tt -100cm = temperature -100cm
ff = wind speed
fx = gusts
dd = wind direction
ppp = reduced air pressure
vv = visibility
rr = precipitation

Next stations